Flag for United Kingdom Weather past 2 weeks in Northampton, England, United Kingdom

Now
52 °F

Passing clouds.


Feels Like: 47 °F
Forecast: 43 / 54 °F
Wind: 13 mph from Southwest

Location: Coventry Airport

Current Time: May 28, 2015 at 1:20:04 AM

Latest Report: May 28, 2015 at 12:50 AM


Visibility: N/A

Pressure: 29.92 "Hg

Humidity: 82%

Dew point: 46 °F

Location of NorthamptonLocation

Historic Weather in Northampton — Graph

°F

Northampton temperature yesterday

Maximum temperature yesterday: 63 °F (at 1:50 PM)
Minimum temperature yesterday: 45 °F (at 2:20 AM)
Average temperature yesterday: 56 °F

Past Weeks' High & Low Weather Summary

 TemperatureHumidityPressure
High66 °F (May 21, 4:50 PM)100% (May 18, 7:20 AM)30.33 "Hg (May 18, 7:20 AM)
Low41 °F (May 20, 6:20 AM)37% (May 21, 5:50 PM)29.53 "Hg (May 18, 11:50 AM)
Average54 °F72%30.07 "Hg
* Reported May 13 12:20 AM — May 28 12:20 AM, Northampton, Weather by CustomWeather, © 2015

Note: Actual official high and low records may vary slightly from our data, if they occured in-between our weather recording intervals... More about our weather records

Advertising

Northampton weather history for previous 24 hours

 ConditionsComfort  
Time TempWeatherWind HumidityBarometerVisibility
12:20 AM
Thu, May 28
52 °FPassing clouds.15 mph82%29.92 "HgN/A
11:50 PM
Wed, May 27
52 °FPassing clouds.14 mph82%29.95 "HgN/A
11:20 PM54 °FPassing clouds.13 mph77%29.95 "HgN/A
10:50 PM54 °FPassing clouds.13 mph72%29.95 "HgN/A
10:20 PM54 °FPartly cloudy.15 mph72%29.95 "HgN/A
9:50 PM55 °FBroken clouds.18 mph63%29.98 "HgN/A
9:20 PM55 °FPartly sunny.16 mph55%29.98 "HgN/A
8:50 PM57 °FScattered clouds.18 mph51%29.95 "HgN/A
8:20 PM57 °FPassing clouds.15 mph63%29.98 "HgN/A
7:50 PM59 °FPassing clouds.14 mph59%29.98 "HgN/A
7:20 PM59 °FPassing clouds.14 mph59%30.01 "HgN/A
6:50 PM61 °FPassing clouds.17 mph55%30.01 "HgN/A
6:20 PM61 °FPassing clouds.18 mph59%30.01 "HgN/A
5:50 PM61 °FPassing clouds.15 mph63%30.04 "HgN/A
5:20 PM63 °FPassing clouds.13 mph59%30.04 "HgN/A
4:50 PM61 °FPassing clouds.14 mph59%30.07 "HgN/A
4:20 PM63 °FPassing clouds.16 mph56%30.07 "HgN/A
3:50 PM63 °FPassing clouds.15 mph52%30.09 "HgN/A
3:20 PM63 °FPassing clouds.16 mph56%30.09 "HgN/A
2:50 PM63 °FPassing clouds.16 mph56%30.12 "HgN/A
2:20 PM63 °FSunny.13 mph56%30.12 "Hg10 mi
1:50 PM63 °FSunny.15 mph56%30.15 "Hg10 mi
1:20 PM61 °FPassing clouds.14 mph59%30.15 "HgN/A
12:50 PM61 °FPassing clouds.12 mph59%30.18 "HgN/A
12:20 PM59 °FPassing clouds.12 mph59%30.21 "HgN/A
11:50 AM59 °FPassing clouds.12 mph59%30.21 "HgN/A
11:20 AM57 °FPassing clouds.12 mph63%30.21 "HgN/A
10:50 AM57 °FScattered clouds.9 mph63%30.24 "HgN/A
10:20 AM55 °FScattered clouds.8 mph67%30.24 "HgN/A
9:50 AM54 °FScattered clouds.7 mph67%30.27 "HgN/A
9:20 AM54 °FPassing clouds.5 mph77%30.27 "HgN/A
8:50 AM50 °FPassing clouds.3 mph82%30.27 "HgN/A
8:20 AM50 °FPassing clouds.6 mph82%30.30 "HgN/A
7:50 AM48 °FPassing clouds.6 mph87%30.30 "HgN/A
7:20 AM48 °FPassing clouds.6 mph87%30.30 "HgN/A
6:50 AM46 °FPassing clouds.3 mph87%30.30 "HgN/A
2:20 AM45 °FClear.5 mph87%30.30 "Hg10 mi
1:50 AM46 °FClear.3 mph82%30.33 "Hg10 mi
1:20 AM46 °FClear.3 mph82%30.33 "Hg10 mi
Weather by CustomWeather, © 2015

See weather overviewHow to use our weather pages